[Date Prev][Date Next][Thread Prev][Thread Next] - [Date Index][Thread Index][Author Index]

2 Line ISS Keps 3-20



ISS 
1 25544U 98067A   03079.19935506  .00017532  00000-0  22689-3 0  7993
2 25544  51.6339 107.1846 0008288 348.4931  95.5389 15.58969060247128


----
Via the sarex mailing list at AMSAT.ORG courtesy of AMSAT-NA.
To unsubscribe, send "unsubscribe sarex" to Majordomo@amsat.org



AMSAT Top AMSAT Home